Location: Godiavel Galaoual
(15.2485°N, 12.6604°W)
Time: 14:14:33
(UTC+00:00)

Courier 1B - All Passes

Search period start: 22 June 2021 00:00
Search period end: 02 July 2021 00:00
Orbit: 962 x 1209 km, 28.3° (Epoch: 21 June)

Date Brightness Start Highest point End Pass type
(mag) Time Alt. Az. Time Alt. Az. Time Alt. Az.
22 Jun - 06:43:51 10° SSE 06:45:30 11° SSE 06:47:11 10° SE daylight
22 Jun - 08:32:42 10° SW 08:39:34 43° SSE 08:46:48 10° E daylight
22 Jun - 10:26:20 10° WSW 10:33:54 69° NNW 10:41:45 10° ENE daylight
22 Jun - 12:21:59 10° WNW 12:29:01 36° N 12:36:05 10° NE daylight
22 Jun - 14:17:54 10° NW 14:24:41 31° N 14:31:19 10° ENE daylight
22 Jun - 16:12:40 10° NW 16:20:06 47° NNE 16:27:10 10° E daylight
22 Jun - 18:07:09 10° WNW 18:14:41 73° SSW 18:21:44 10° SE daylight
22 Jun - 20:03:27 10° W 20:08:37 21° SSW 20:13:34 10° SSE visible
23 Jun - 07:39:32 10° SSW 07:45:44 31° SSE 07:52:13 10° E daylight
23 Jun - 09:32:24 10° WSW 09:39:52 87° NNW 09:47:43 10° ENE daylight
23 Jun - 11:27:35 10° W 11:34:45 41° NNW 11:42:04 10° NE daylight
23 Jun - 13:23:35 10° WNW 13:30:20 30° N 13:37:01 10° ENE daylight
23 Jun - 15:18:39 10° NW 15:25:55 40° NNE 15:32:56 10° E daylight
23 Jun - 17:13:01 10° WNW 17:20:45 87° NNE 17:28:01 10° ESE daylight
23 Jun - 19:08:31 10° W 19:14:50 30° SSW 19:20:48 10° SSE daylight
24 Jun - 06:46:43 10° SSW 06:51:54 22° SSE 06:57:18 10° E daylight
24 Jun - 08:38:39 10° SW 08:45:54 73° SSE 08:53:35 10° ENE daylight
24 Jun - 10:33:17 10° W 10:40:32 48° NNW 10:48:03 10° NE daylight
24 Jun - 12:29:14 10° WNW 12:35:59 31° N 12:42:46 10° NE daylight
24 Jun - 14:24:34 10° NW 14:31:39 35° N 14:38:35 10° ENE daylight
24 Jun - 16:18:59 10° WNW 16:26:45 69° NNE 16:34:08 10° ESE daylight
24 Jun - 18:13:56 10° W 18:21:00 43° SSW 18:27:41 10° SE daylight
24 Jun - 20:14:03 10° SW 20:15:01 10° SSW 20:15:58 10° SSW visible
25 Jun - 05:54:31 10° S 05:58:04 14° SSE 06:01:43 10° ESE visible
25 Jun - 07:45:07 10° SW 07:52:01 54° SSE 07:59:21 10° ENE daylight
25 Jun - 09:39:08 10° W 09:46:25 58° NNW 09:54:03 10° ENE daylight
25 Jun - 11:34:53 10° WNW 11:41:39 33° N 11:48:34 10° NE daylight
25 Jun - 13:30:28 10° NW 13:37:21 32° N 13:44:11 10° ENE daylight
25 Jun - 15:24:58 10° WNW 15:32:39 56° NNE 15:40:05 10° E daylight
25 Jun - 17:19:35 10° WNW 17:27:08 58° SSW 17:34:18 10° SE daylight
25 Jun - 19:16:48 10° WSW 19:21:08 16° SSW 19:25:22 10° S daylight
26 Jun - 06:51:49 10° SW 06:58:13 39° SSE 07:04:58 10° E daylight
26 Jun - 08:45:09 10° WSW 08:52:22 72° NNW 09:00:01 10° ENE daylight
26 Jun - 10:40:32 10° WNW 10:47:22 36° N 10:54:25 10° NE daylight
26 Jun - 12:36:18 10° NW 12:43:00 31° N 12:49:46 10° ENE daylight
26 Jun - 14:30:59 10° NW 14:38:29 46° NNE 14:45:50 10° E daylight
26 Jun - 16:25:23 10° WNW 16:33:12 78° SSW 16:40:41 10° ESE daylight
26 Jun - 18:21:27 10° W 18:27:18 24° SSW 18:32:55 10° SSE daylight
27 Jun - 05:58:47 10° SSW 06:04:25 27° SSE 06:10:19 10° E visible
27 Jun - 07:51:20 10° WSW 07:58:24 89° SSE 08:05:58 10° ENE daylight
27 Jun - 09:46:16 10° W 09:53:08 41° NNW 10:00:21 10° NE daylight
27 Jun - 11:42:05 10° WNW 11:48:39 30° N 11:55:23 10° ENE daylight
27 Jun - 13:37:01 10° NW 13:44:15 39° NNE 13:51:28 10° E daylight
27 Jun - 15:31:18 10° WNW 15:39:12 83° NNE 15:46:51 10° ESE daylight
27 Jun - 17:26:37 10° W 17:33:26 34° SSW 17:39:58 10° SSE daylight
28 Jun - 05:06:10 10° S 05:10:40 19° SSE 05:15:19 10° ESE visible
28 Jun - 06:57:43 10° SW 07:04:32 68° SSE 07:11:50 10° ENE daylight
28 Jun - 08:52:07 10° W 08:59:00 48° NNW 09:06:19 10° NE daylight
28 Jun - 10:47:51 10° WNW 10:54:20 31° N 11:01:03 10° NE daylight
28 Jun - 12:43:01 10° NW 12:49:59 35° N 12:57:00 10° ENE daylight
28 Jun - 14:37:18 10° WNW 14:45:08 66° NNE 14:52:49 10° ESE daylight
28 Jun - 16:32:07 10° WNW 16:39:32 47° SSW 16:46:42 10° SE daylight
28 Jun - 18:30:43 10° WSW 18:33:40 13° SSW 18:36:35 10° S daylight
29 Jun - 04:14:25 10° S 04:16:54 12° SSE 04:19:24 10° SE visible
29 Jun - 06:04:17 10° SW 06:10:45 49° SSE 06:17:36 10° ENE daylight
29 Jun - 07:58:04 10° W 08:04:57 59° NNW 08:12:18 10° ENE daylight
29 Jun - 09:53:35 10° WNW 10:00:03 32° N 10:06:48 10° NE daylight
29 Jun - 11:49:00 10° NW 11:55:40 32° N 12:02:30 10° ENE daylight
29 Jun - 13:43:22 10° NW 13:51:00 54° NNE 13:58:37 10° E daylight
29 Jun - 15:37:49 10° WNW 15:45:35 63° SSW 15:53:09 10° SE daylight
29 Jun - 17:34:37 10° WSW 17:39:44 19° SSW 17:44:44 10° S daylight
30 Jun - 05:11:05 10° SSW 05:17:01 35° SSE 05:23:14 10° E visible
30 Jun - 07:04:11 10° WSW 07:11:00 75° NNW 07:18:18 10° ENE daylight
30 Jun - 08:59:22 10° WNW 09:05:50 36° NNW 09:12:39 10° NE daylight
30 Jun - 10:54:57 10° NW 11:01:22 30° N 11:08:00 10° ENE daylight
30 Jun - 12:49:29 10° NW 12:56:49 44° NNE 13:04:15 10° E daylight
30 Jun - 14:43:42 10° WNW 14:51:35 82° SSW 14:59:23 10° ESE daylight
30 Jun - 16:39:29 10° W 16:45:49 27° SSW 16:52:00 10° SSE daylight
01 Jul - 04:18:09 10° SSW 04:23:18 24° SSE 04:28:36 10° E visible
01 Jul - 06:10:27 10° WSW 06:17:09 85° SSE 06:24:17 10° ENE daylight
01 Jul - 08:05:12 10° W 08:11:42 41° NNW 08:18:36 10° NE daylight
01 Jul - 10:00:51 10° WNW 10:07:04 29° N 10:13:34 10° ENE daylight
01 Jul - 11:55:37 10° NW 12:02:36 38° NNE 12:09:46 10° E daylight
01 Jul - 13:49:43 10° WNW 13:57:32 79° NNE 14:05:25 10° ESE daylight
01 Jul - 15:44:48 10° W 15:51:53 37° SSW 15:58:52 10° SSE daylight
